sat.trackr.live / text

‹ back to catalog

STARLINK-31757

NORAD 59427 · 2024-065G

PAYLOAD ACTIVE UNKNOWN

§ Identity

Operator
Country
US
Launch date
2024-04-07
Launch site
AFWTR
Launch vehicle
Mass (kg)
RCS (m²)

Purposes: comms

External: N2YO · Heavens-Above · Gunter

§ Orbital elements

Epoch: 2026-05-24T19:19:29.415648Z

Period
94.11 min
Inclination
53.1608°
Eccentricity
0.0001272
Mean motion
15.30194567 rev/d
Perigee alt
474.4 km
Apogee alt
476.1 km
Semi-major
6,853.4 km
B*
5.9360e-5
RAAN
288.0936°
Arg perigee
79.2426°
Mean anomaly
280.8718°
Rev number
12,058

§ Raw data

STARLINK-317571 59427U 24065G   26144.80520157  .00001399  00000+0  59360-4 0  99972 59427  53.1608 288.0936 0001272  79.2426 280.8718 15.30194567120581

JSON: /api/v1/satellites/59427 · /tle

For live sub-satellite position, see the globe view (requires WebGL).

§ Visibility from observer

Set your observer location to see the next 7 days of passes ≥ 10°. The values pass through the URL so the page stays shareable.

No JS? Fill the form by hand. The geolocation button needs JavaScript.